Datum;"Wasserstand in cm";"Stationsnummer: 5873600";"Stationsname: G�ttin";"Gew?sser: Plane";"Fehlwerte: -777"
"19.03.2024 00:00";146
"19.03.2024 00:15";146
"19.03.2024 00:30";146
"19.03.2024 00:45";146
"19.03.2024 01:00";146
"19.03.2024 01:15";146
"19.03.2024 01:30";146
"19.03.2024 01:45";146
"19.03.2024 02:00";146
"19.03.2024 02:15";146
"19.03.2024 02:30";146
"19.03.2024 02:45";146
"19.03.2024 03:00";146
"19.03.2024 03:15";146
"19.03.2024 03:30";146
"19.03.2024 03:45";146
"19.03.2024 04:00";146
"19.03.2024 04:15";146
"19.03.2024 04:30";146
"19.03.2024 04:45";146
"19.03.2024 05:00";146
"19.03.2024 05:15";146
"19.03.2024 05:30";146
"19.03.2024 05:45";146
"19.03.2024 06:00";146
"19.03.2024 06:15";146
"19.03.2024 06:30";146
"19.03.2024 06:45";146
"19.03.2024 07:00";146
"19.03.2024 07:15";146
"19.03.2024 07:30";146
"19.03.2024 07:45";146
"19.03.2024 08:00";146
"19.03.2024 08:15";146
"19.03.2024 08:30";146
"19.03.2024 08:45";146
"19.03.2024 09:00";146
"19.03.2024 09:15";146
"19.03.2024 09:30";146
"19.03.2024 09:45";146
"19.03.2024 10:00";146
"19.03.2024 10:15";146
"19.03.2024 10:30";146
"19.03.2024 10:45";146
"19.03.2024 11:00";146
"19.03.2024 11:15";146
"19.03.2024 11:30";146
"19.03.2024 11:45";146
"19.03.2024 12:00";146
"19.03.2024 12:15";146
"19.03.2024 12:30";146
"19.03.2024 12:45";146
"19.03.2024 13:00";146
"19.03.2024 13:15";146
"19.03.2024 13:30";146
"19.03.2024 13:45";146
"19.03.2024 14:00";146
"19.03.2024 14:15";146
"19.03.2024 14:30";146
"19.03.2024 14:45";146
"19.03.2024 15:00";146
"19.03.2024 15:15";146
"19.03.2024 15:30";146
"19.03.2024 15:45";146
"19.03.2024 16:00";146
"19.03.2024 16:15";146
"19.03.2024 16:30";146
"19.03.2024 16:45";146
"19.03.2024 17:00";146
"19.03.2024 17:15";146
"19.03.2024 17:30";146
"19.03.2024 17:45";146
"19.03.2024 18:00";146
"19.03.2024 18:15";146
"19.03.2024 18:30";146
"19.03.2024 18:45";146
"19.03.2024 19:00";146
"19.03.2024 19:15";146
"19.03.2024 19:30";146
"19.03.2024 19:45";146
"19.03.2024 20:00";146
"19.03.2024 20:15";146
"19.03.2024 20:30";146
"19.03.2024 20:45";146
"19.03.2024 21:00";146
"19.03.2024 21:15";146
"19.03.2024 21:30";146
"19.03.2024 21:45";146
"19.03.2024 22:00";146
"19.03.2024 22:15";146
"19.03.2024 22:30";146
"19.03.2024 22:45";146
"19.03.2024 23:00";146
"19.03.2024 23:15";146
"19.03.2024 23:30";146
"19.03.2024 23:45";146
"20.03.2024 00:00";146
"20.03.2024 00:15";146
"20.03.2024 00:30";146
"20.03.2024 00:45";146
"20.03.2024 01:00";146
"20.03.2024 01:15";146
"20.03.2024 01:30";146
"20.03.2024 01:45";146
"20.03.2024 02:00";145
"20.03.2024 02:15";145
"20.03.2024 02:30";145
"20.03.2024 02:45";145
"20.03.2024 03:00";145
"20.03.2024 03:15";145
"20.03.2024 03:30";145
"20.03.2024 03:45";145
"20.03.2024 04:00";145
"20.03.2024 04:15";145
"20.03.2024 04:30";145
"20.03.2024 04:45";145
"20.03.2024 05:00";145
"20.03.2024 05:15";145
"20.03.2024 05:30";145
"20.03.2024 05:45";145
"20.03.2024 06:00";145
"20.03.2024 06:15";145
"20.03.2024 06:30";145
"20.03.2024 06:45";145
"20.03.2024 07:00";145
"20.03.2024 07:15";145
"20.03.2024 07:30";145
"20.03.2024 07:45";145
"20.03.2024 08:00";145
"20.03.2024 08:15";145
"20.03.2024 08:30";145
"20.03.2024 08:45";145
"20.03.2024 09:00";145
"20.03.2024 09:15";145
"20.03.2024 09:30";145
"20.03.2024 09:45";145
"20.03.2024 10:00";145
"20.03.2024 10:15";145
"20.03.2024 10:30";145
"20.03.2024 10:45";145
"20.03.2024 11:00";145
"20.03.2024 11:15";145
"20.03.2024 11:30";145
"20.03.2024 11:45";145
"20.03.2024 12:00";145
"20.03.2024 12:15";145
"20.03.2024 12:30";145
"20.03.2024 12:45";145
"20.03.2024 13:00";145
"20.03.2024 13:15";145
"20.03.2024 13:30";145
"20.03.2024 13:45";145
"20.03.2024 14:00";145
"20.03.2024 14:15";145
"20.03.2024 14:30";145
"20.03.2024 14:45";145
"20.03.2024 15:00";145
"20.03.2024 15:15";145
"20.03.2024 15:30";145
"20.03.2024 15:45";145
"20.03.2024 16:00";145
"20.03.2024 16:15";145
"20.03.2024 16:30";145
"20.03.2024 16:45";145
"20.03.2024 17:00";145
"20.03.2024 17:15";145
"20.03.2024 17:30";145
"20.03.2024 17:45";145
"20.03.2024 18:00";145
"20.03.2024 18:15";145
"20.03.2024 18:30";145
"20.03.2024 18:45";145
"20.03.2024 19:00";145
"20.03.2024 19:15";145
"20.03.2024 19:30";145
"20.03.2024 19:45";145
"20.03.2024 20:00";145
"20.03.2024 20:15";145
"20.03.2024 20:30";145
"20.03.2024 20:45";145
"20.03.2024 21:00";145
"20.03.2024 21:15";145
"20.03.2024 21:30";145
"20.03.2024 21:45";145
"20.03.2024 22:00";145
"20.03.2024 22:15";145
"20.03.2024 22:30";145
"20.03.2024 22:45";145
"20.03.2024 23:00";145
"20.03.2024 23:15";145
"20.03.2024 23:30";145
"20.03.2024 23:45";145
"21.03.2024 00:00";145
"21.03.2024 00:15";145
"21.03.2024 00:30";145
"21.03.2024 00:45";145
"21.03.2024 01:00";145
"21.03.2024 01:15";145
"21.03.2024 01:30";145
"21.03.2024 01:45";145
"21.03.2024 02:00";145
"21.03.2024 02:15";145
"21.03.2024 02:30";145
"21.03.2024 02:45";145
"21.03.2024 03:00";145
"21.03.2024 03:15";145
"21.03.2024 03:30";145
"21.03.2024 03:45";145
"21.03.2024 04:00";145
"21.03.2024 04:15";145
"21.03.2024 04:30";145
"21.03.2024 04:45";145
"21.03.2024 05:00";145
"21.03.2024 05:15";145
"21.03.2024 05:30";145
"21.03.2024 05:45";145
"21.03.2024 06:00";145
"21.03.2024 06:15";145
"21.03.2024 06:30";145
"21.03.2024 06:45";145
"21.03.2024 07:00";145
"21.03.2024 07:15";145
"21.03.2024 07:30";145
"21.03.2024 07:45";145
"21.03.2024 08:00";145
"21.03.2024 08:15";145
"21.03.2024 08:30";145
"21.03.2024 08:45";145
"21.03.2024 09:00";146
"21.03.2024 09:15";146
"21.03.2024 09:30";146
"21.03.2024 09:45";146
"21.03.2024 10:00";146
"21.03.2024 10:15";146
"21.03.2024 10:30";146
"21.03.2024 10:45";146
"21.03.2024 11:00";146
"21.03.2024 11:15";146
"21.03.2024 11:30";146
"21.03.2024 11:45";146
"21.03.2024 12:00";147
"21.03.2024 12:15";147
"21.03.2024 12:30";147
"21.03.2024 12:45";147
"21.03.2024 13:00";147
"21.03.2024 13:15";147
"21.03.2024 13:30";147
"21.03.2024 13:45";147
"21.03.2024 14:00";147
"21.03.2024 14:15";147
"21.03.2024 14:30";147
"21.03.2024 14:45";147
"21.03.2024 15:00";147
"21.03.2024 15:15";147
"21.03.2024 15:30";147
"21.03.2024 15:45";147
"21.03.2024 16:00";147
"21.03.2024 16:15";147
"21.03.2024 16:30";147
"21.03.2024 16:45";147
"21.03.2024 17:00";147
"21.03.2024 17:15";147
"21.03.2024 17:30";147
"21.03.2024 17:45";147
"21.03.2024 18:00";147
"21.03.2024 18:15";147
"21.03.2024 18:30";147
"21.03.2024 18:45";147
"21.03.2024 19:00";147
"21.03.2024 19:15";147
"21.03.2024 19:30";147
"21.03.2024 19:45";147
"21.03.2024 20:00";147
"21.03.2024 20:15";148
"21.03.2024 20:30";148
"21.03.2024 20:45";148
"21.03.2024 21:00";148
"21.03.2024 21:15";148
"21.03.2024 21:30";148
"21.03.2024 21:45";148
"21.03.2024 22:00";148
"21.03.2024 22:15";148
"21.03.2024 22:30";148
"21.03.2024 22:45";148
"21.03.2024 23:00";149
"21.03.2024 23:15";149
"21.03.2024 23:30";149
"21.03.2024 23:45";149
"22.03.2024 00:00";149
"22.03.2024 00:15";149
"22.03.2024 00:30";149
"22.03.2024 00:45";149
"22.03.2024 01:00";150
"22.03.2024 01:15";150
"22.03.2024 01:30";150
"22.03.2024 01:45";150
"22.03.2024 02:00";150
"22.03.2024 02:15";150
"22.03.2024 02:30";150
"22.03.2024 02:45";150
"22.03.2024 03:00";150
"22.03.2024 03:15";150
"22.03.2024 03:30";151
"22.03.2024 03:45";151
"22.03.2024 04:00";151
"22.03.2024 04:15";151
"22.03.2024 04:30";151
"22.03.2024 04:45";151
"22.03.2024 05:00";151
"22.03.2024 05:15";151
"22.03.2024 05:30";151
"22.03.2024 05:45";151
"22.03.2024 06:00";151
"22.03.2024 06:15";151
"22.03.2024 06:30";151
"22.03.2024 06:45";151
"22.03.2024 07:00";151
"22.03.2024 07:15";152
"22.03.2024 07:30";152
"22.03.2024 07:45";152
"22.03.2024 08:00";152
"22.03.2024 08:15";152
"22.03.2024 08:30";152
"22.03.2024 08:45";152
"22.03.2024 09:00";152
"22.03.2024 09:15";152
"22.03.2024 09:30";152
"22.03.2024 09:45";152
"22.03.2024 10:00";152
"22.03.2024 10:15";152
"22.03.2024 10:30";152
"22.03.2024 10:45";152
"22.03.2024 11:00";152
"22.03.2024 11:15";152
"22.03.2024 11:30";152
"22.03.2024 11:45";152
"22.03.2024 12:00";152
"22.03.2024 12:15";152
"22.03.2024 12:30";152
"22.03.2024 12:45";152
"22.03.2024 13:00";152
"22.03.2024 13:15";152
"22.03.2024 13:30";152
"22.03.2024 13:45";152
"22.03.2024 14:00";152
"22.03.2024 14:15";152
"22.03.2024 14:30";152
"22.03.2024 14:45";152
"22.03.2024 15:00";152
"22.03.2024 15:15";152
"22.03.2024 15:30";152
"22.03.2024 15:45";152
"22.03.2024 16:00";152
"22.03.2024 16:15";152
"22.03.2024 16:30";152
"22.03.2024 16:45";152
"22.03.2024 17:00";152
"22.03.2024 17:15";152
"22.03.2024 17:30";152
"22.03.2024 17:45";152
"22.03.2024 18:00";152
"22.03.2024 18:15";152
"22.03.2024 18:30";152
"22.03.2024 18:45";152
"22.03.2024 19:00";152
"22.03.2024 19:15";152
"22.03.2024 19:30";152
"22.03.2024 19:45";152
"22.03.2024 20:00";152
"22.03.2024 20:15";153
"22.03.2024 20:30";153
"22.03.2024 20:45";153
"22.03.2024 21:00";153
"22.03.2024 21:15";153
"22.03.2024 21:30";153
"22.03.2024 21:45";153
"22.03.2024 22:00";153
"22.03.2024 22:15";153
"22.03.2024 22:30";153
"22.03.2024 22:45";153
"22.03.2024 23:00";153
"22.03.2024 23:15";153
"22.03.2024 23:30";153
"22.03.2024 23:45";153
"23.03.2024 00:00";153
"23.03.2024 00:15";153
"23.03.2024 00:30";153
"23.03.2024 00:45";153
"23.03.2024 01:00";153
"23.03.2024 01:15";153
"23.03.2024 01:30";153
"23.03.2024 01:45";153
"23.03.2024 02:00";153
"23.03.2024 02:15";153
"23.03.2024 02:30";153
"23.03.2024 02:45";153
"23.03.2024 03:00";153
"23.03.2024 03:15";153
"23.03.2024 03:30";153
"23.03.2024 03:45";153
"23.03.2024 04:00";153
"23.03.2024 04:15";153
"23.03.2024 04:30";153
"23.03.2024 04:45";153
"23.03.2024 05:00";153
"23.03.2024 05:15";153
"23.03.2024 05:30";153
"23.03.2024 05:45";153
"23.03.2024 06:00";153
"23.03.2024 06:15";153
"23.03.2024 06:30";153
"23.03.2024 06:45";153
"23.03.2024 07:00";153
"23.03.2024 07:15";153
"23.03.2024 07:30";154
"23.03.2024 07:45";154
"23.03.2024 08:00";154
"23.03.2024 08:15";154
"23.03.2024 08:30";154
"23.03.2024 08:45";154
"23.03.2024 09:00";154
"23.03.2024 09:15";154
"23.03.2024 09:30";154
"23.03.2024 09:45";154
"23.03.2024 10:00";154
"23.03.2024 10:15";155
"23.03.2024 10:30";155
"23.03.2024 10:45";155
"23.03.2024 11:00";155
"23.03.2024 11:15";155
"23.03.2024 11:30";155
"23.03.2024 11:45";155
"23.03.2024 12:00";155
"23.03.2024 12:15";155
"23.03.2024 12:30";155
"23.03.2024 12:45";155
"23.03.2024 13:00";155
"23.03.2024 13:15";155
"23.03.2024 13:30";155
"23.03.2024 13:45";155
"23.03.2024 14:00";155
"23.03.2024 14:15";155
"23.03.2024 14:30";156
"23.03.2024 14:45";156
"23.03.2024 15:00";156
"23.03.2024 15:15";156
"23.03.2024 15:30";156
"23.03.2024 15:45";156
"23.03.2024 16:00";156
"23.03.2024 16:15";156
"23.03.2024 16:30";156
"23.03.2024 16:45";156
"23.03.2024 17:00";156
"23.03.2024 17:15";156
"23.03.2024 17:30";156
"23.03.2024 17:45";156
"23.03.2024 18:00";157
"23.03.2024 18:15";157
"23.03.2024 18:30";157
"23.03.2024 18:45";157
"23.03.2024 19:00";157
"23.03.2024 19:15";157
"23.03.2024 19:30";157
"23.03.2024 19:45";157
"23.03.2024 20:00";157
"23.03.2024 20:15";157
"23.03.2024 20:30";157
"23.03.2024 20:45";157
"23.03.2024 21:00";157
"23.03.2024 21:15";157
"23.03.2024 21:30";157
"23.03.2024 21:45";157
"23.03.2024 22:00";157
"23.03.2024 22:15";157
"23.03.2024 22:30";158
"23.03.2024 22:45";158
"23.03.2024 23:00";158
"23.03.2024 23:15";158
"23.03.2024 23:30";158
"23.03.2024 23:45";158
"24.03.2024 00:00";158
"24.03.2024 00:15";158
"24.03.2024 00:30";158
"24.03.2024 00:45";158
"24.03.2024 01:00";158
"24.03.2024 01:15";158
"24.03.2024 01:30";159
"24.03.2024 01:45";159
"24.03.2024 02:00";159
"24.03.2024 02:15";159
"24.03.2024 02:30";159
"24.03.2024 02:45";159
"24.03.2024 03:00";159
"24.03.2024 03:15";159
"24.03.2024 03:30";159
"24.03.2024 03:45";160
"24.03.2024 04:00";160
"24.03.2024 04:15";160
"24.03.2024 04:30";160
"24.03.2024 04:45";160
"24.03.2024 05:00";160
"24.03.2024 05:15";160
"24.03.2024 05:30";160
"24.03.2024 05:45";160
"24.03.2024 06:00";160
"24.03.2024 06:15";160
"24.03.2024 06:30";160
"24.03.2024 06:45";160
"24.03.2024 07:00";160
"24.03.2024 07:15";161
"24.03.2024 07:30";161
"24.03.2024 07:45";161
"24.03.2024 08:00";161
"24.03.2024 08:15";161
"24.03.2024 08:30";161
"24.03.2024 08:45";161
"24.03.2024 09:00";161
"24.03.2024 09:15";161
"24.03.2024 09:30";161
"24.03.2024 09:45";161
"24.03.2024 10:00";161
"24.03.2024 10:15";161
"24.03.2024 10:30";161
"24.03.2024 10:45";161
"24.03.2024 11:00";161
"24.03.2024 11:15";161
"24.03.2024 11:30";161
"24.03.2024 11:45";161
"24.03.2024 12:00";161
"24.03.2024 12:15";161
"24.03.2024 12:30";161
"24.03.2024 12:45";161
"24.03.2024 13:00";161
"24.03.2024 13:15";162
"24.03.2024 13:30";162
"24.03.2024 13:45";162
"24.03.2024 14:00";162
"24.03.2024 14:15";162
"24.03.2024 14:30";162
"24.03.2024 14:45";162
"24.03.2024 15:00";162
"24.03.2024 15:15";162
"24.03.2024 15:30";162
"24.03.2024 15:45";162
"24.03.2024 16:00";162
"24.03.2024 16:15";162
"24.03.2024 16:30";162
"24.03.2024 16:45";162
"24.03.2024 17:00";162
"24.03.2024 17:15";162
"24.03.2024 17:30";162
"24.03.2024 17:45";162
"24.03.2024 18:00";162
"24.03.2024 18:15";162
"24.03.2024 18:30";162
"24.03.2024 18:45";162
"24.03.2024 19:00";162
"24.03.2024 19:15";161
"24.03.2024 19:30";161
"24.03.2024 19:45";161
"24.03.2024 20:00";161
"24.03.2024 20:15";161
"24.03.2024 20:30";161
"24.03.2024 20:45";161
"24.03.2024 21:00";161
"24.03.2024 21:15";161
"24.03.2024 21:30";161
"24.03.2024 21:45";161
"24.03.2024 22:00";161
"24.03.2024 22:15";161
"24.03.2024 22:30";161
"24.03.2024 22:45";160
"24.03.2024 23:00";160
"24.03.2024 23:15";160
"24.03.2024 23:30";160
"24.03.2024 23:45";160
"25.03.2024 00:00";160
"25.03.2024 00:15";160
"25.03.2024 00:30";160
"25.03.2024 00:45";160
"25.03.2024 01:00";160
"25.03.2024 01:15";160
"25.03.2024 01:30";160
"25.03.2024 01:45";160
"25.03.2024 02:00";160
"25.03.2024 02:15";160
"25.03.2024 02:30";160
"25.03.2024 02:45";160
"25.03.2024 03:00";160
"25.03.2024 03:15";160
"25.03.2024 03:30";160
"25.03.2024 03:45";160
"25.03.2024 04:00";160
"25.03.2024 04:15";160
"25.03.2024 04:30";160
"25.03.2024 04:45";160
"25.03.2024 05:00";160
"25.03.2024 05:15";160
"25.03.2024 05:30";160
"25.03.2024 05:45";160
"25.03.2024 06:00";160
"25.03.2024 06:15";160
"25.03.2024 06:30";160
"25.03.2024 06:45";160
"25.03.2024 07:00";160
"25.03.2024 07:15";160
"25.03.2024 07:30";160
"25.03.2024 07:45";160
"25.03.2024 08:00";160
"25.03.2024 08:15";160
"25.03.2024 08:30";160
"25.03.2024 08:45";160
"25.03.2024 09:00";160
"25.03.2024 09:15";160
"25.03.2024 09:30";160
"25.03.2024 09:45";160
"25.03.2024 10:00";160
"25.03.2024 10:15";160
"25.03.2024 10:30";160
"25.03.2024 10:45";160
"25.03.2024 11:00";160
"25.03.2024 11:15";160
"25.03.2024 11:30";160
"25.03.2024 11:45";160
"25.03.2024 12:00";160
"25.03.2024 12:15";160
"25.03.2024 12:30";160
"25.03.2024 12:45";160
"25.03.2024 13:00";160
"25.03.2024 13:15";160
"25.03.2024 13:30";160
"25.03.2024 13:45";160
"25.03.2024 14:00";160
"25.03.2024 14:15";160
"25.03.2024 14:30";160
"25.03.2024 14:45";160
"25.03.2024 15:00";160
"25.03.2024 15:15";160
"25.03.2024 15:30";160
"25.03.2024 15:45";160
"25.03.2024 16:00";160
"25.03.2024 16:15";160
"25.03.2024 16:30";160
"25.03.2024 16:45";160
"25.03.2024 17:00";160
"25.03.2024 17:15";160
"25.03.2024 17:30";160
"25.03.2024 17:45";160
"25.03.2024 18:00";160
"25.03.2024 18:15";160
"25.03.2024 18:30";160
"25.03.2024 18:45";160
"25.03.2024 19:00";160
"25.03.2024 19:15";160
"25.03.2024 19:30";160
"25.03.2024 19:45";160
"25.03.2024 20:00";160
"25.03.2024 20:15";160
"25.03.2024 20:30";160
"25.03.2024 20:45";160
"25.03.2024 21:00";160
"25.03.2024 21:15";161
"25.03.2024 21:30";161
"25.03.2024 21:45";161
"25.03.2024 22:00";161
"25.03.2024 22:15";161
"25.03.2024 22:30";161
"25.03.2024 22:45";161
"25.03.2024 23:00";161
"25.03.2024 23:15";161
"25.03.2024 23:30";161
"25.03.2024 23:45";161
"26.03.2024 00:00";161
"26.03.2024 00:15";161
"26.03.2024 00:30";160
"26.03.2024 00:45";160
"26.03.2024 01:00";160
"26.03.2024 01:15";160
"26.03.2024 01:30";160
"26.03.2024 01:45";160
"26.03.2024 02:00";160
"26.03.2024 02:15";160
"26.03.2024 02:30";160
"26.03.2024 02:45";160
"26.03.2024 03:00";160
"26.03.2024 03:15";160
"26.03.2024 03:30";160
"26.03.2024 03:45";160
"26.03.2024 04:00";160
"26.03.2024 04:15";160
"26.03.2024 04:30";160
"26.03.2024 04:45";160
"26.03.2024 05:00";160
"26.03.2024 05:15";160
"26.03.2024 05:30";160
"26.03.2024 05:45";160
"26.03.2024 06:00";160
"26.03.2024 06:15";160
"26.03.2024 06:30";160
"26.03.2024 06:45";160
"26.03.2024 07:00";160
"26.03.2024 07:15";160
"26.03.2024 07:30";160
"26.03.2024 07:45";160
"26.03.2024 08:00";160
"26.03.2024 08:15";160
"26.03.2024 08:30";160
"26.03.2024 08:45";160
"26.03.2024 09:00";160
"26.03.2024 09:15";160
"26.03.2024 09:30";160
"26.03.2024 09:45";160
"26.03.2024 10:00";160
"26.03.2024 10:15";160
"26.03.2024 10:30";160
"26.03.2024 10:45";160
"26.03.2024 11:00";160
"26.03.2024 11:15";160
"26.03.2024 11:30";160
"26.03.2024 11:45";160
"26.03.2024 12:00";160
"26.03.2024 12:15";160
"26.03.2024 12:30";160
"26.03.2024 12:45";159
"26.03.2024 13:00";159
"26.03.2024 13:15";159
"26.03.2024 13:30";159
"26.03.2024 13:45";159
"26.03.2024 14:00";159
"26.03.2024 14:15";159
"26.03.2024 14:30";159
"26.03.2024 14:45";159
"26.03.2024 15:00";159
"26.03.2024 15:15";159
"26.03.2024 15:30";159
"26.03.2024 15:45";159
"26.03.2024 16:00";159
"26.03.2024 16:15";159
"26.03.2024 16:30";159
"26.03.2024 16:45";159
"26.03.2024 17:00";159
"26.03.2024 17:15";159
"26.03.2024 17:30";159
"26.03.2024 17:45";159
"26.03.2024 18:00";159
"26.03.2024 18:15";159
"26.03.2024 18:30";159
"26.03.2024 18:45";159
"26.03.2024 19:00";158
"26.03.2024 19:15";158
"26.03.2024 19:30";158
"26.03.2024 19:45";158
"26.03.2024 20:00";158
"26.03.2024 20:15";158
"26.03.2024 20:30";158
"26.03.2024 20:45";158
"26.03.2024 21:00";158
"26.03.2024 21:15";158
"26.03.2024 21:30";158
"26.03.2024 21:45";158
"26.03.2024 22:00";158
"26.03.2024 22:15";158
"26.03.2024 22:30";158
"26.03.2024 22:45";158
"26.03.2024 23:00";158
"26.03.2024 23:15";158
"26.03.2024 23:30";158
"26.03.2024 23:45";158
"27.03.2024 00:00";158
"27.03.2024 00:15";158
"27.03.2024 00:30";158
"27.03.2024 00:45";158
"27.03.2024 01:00";158
"27.03.2024 01:15";158
"27.03.2024 01:30";158
"27.03.2024 01:45";158
"27.03.2024 02:00";157
"27.03.2024 02:15";157
"27.03.2024 02:30";157
"27.03.2024 02:45";157
"27.03.2024 03:00";157
"27.03.2024 03:15";157
"27.03.2024 03:30";157
"27.03.2024 03:45";157
"27.03.2024 04:00";157
"27.03.2024 04:15";157
"27.03.2024 04:30";157
"27.03.2024 04:45";157
"27.03.2024 05:00";157
"27.03.2024 05:15";157
"27.03.2024 05:30";157
"27.03.2024 05:45";157
"27.03.2024 06:00";157
"27.03.2024 06:15";157
"27.03.2024 06:30";157
"27.03.2024 06:45";157
"27.03.2024 07:00";157
"27.03.2024 07:15";157
"27.03.2024 07:30";157
"27.03.2024 07:45";157
"27.03.2024 08:00";157
"27.03.2024 08:15";157
"27.03.2024 08:30";157
"27.03.2024 08:45";157
"27.03.2024 09:00";157
"27.03.2024 09:15";157
"27.03.2024 09:30";157
"27.03.2024 09:45";157
"27.03.2024 10:00";157
"27.03.2024 10:15";157
"27.03.2024 10:30";157
"27.03.2024 10:45";157
"27.03.2024 11:00";157
"27.03.2024 11:15";157
"27.03.2024 11:30";157
"27.03.2024 11:45";157
"27.03.2024 12:00";157
"27.03.2024 12:15";156
"27.03.2024 12:30";156
"27.03.2024 12:45";156
"27.03.2024 13:00";156
"27.03.2024 13:15";156
"27.03.2024 13:30";156
"27.03.2024 13:45";156
"27.03.2024 14:00";156
"27.03.2024 14:15";156
"27.03.2024 14:30";156
"27.03.2024 14:45";156
"27.03.2024 15:00";156
"27.03.2024 15:15";156
"27.03.2024 15:30";156
"27.03.2024 15:45";156
"27.03.2024 16:00";156
"27.03.2024 16:15";156
"27.03.2024 16:30";156
"27.03.2024 16:45";156
"27.03.2024 17:00";155
"27.03.2024 17:15";155
"27.03.2024 17:30";155
"27.03.2024 17:45";155
"27.03.2024 18:00";155
"27.03.2024 18:15";155
"27.03.2024 18:30";155
"27.03.2024 18:45";155
"27.03.2024 19:00";155
"27.03.2024 19:15";155
"27.03.2024 19:30";155
"27.03.2024 19:45";155
"27.03.2024 20:00";155
"27.03.2024 20:15";155
"27.03.2024 20:30";155
"27.03.2024 20:45";155
"27.03.2024 21:00";155
"27.03.2024 21:15";155
"27.03.2024 21:30";155
"27.03.2024 21:45";155
"27.03.2024 22:00";155
"27.03.2024 22:15";155
"27.03.2024 22:30";155
"27.03.2024 22:45";155
"27.03.2024 23:00";154
"27.03.2024 23:15";154
"27.03.2024 23:30";154
"27.03.2024 23:45";154
"28.03.2024 00:00";154
"28.03.2024 00:15";154
"28.03.2024 00:30";154
"28.03.2024 00:45";154
"28.03.2024 01:00";154
"28.03.2024 01:15";154
"28.03.2024 01:30";154
"28.03.2024 01:45";154
"28.03.2024 02:00";154
"28.03.2024 02:15";154
"28.03.2024 02:30";154
"28.03.2024 02:45";154
"28.03.2024 03:00";154
"28.03.2024 03:15";154
"28.03.2024 03:30";154
"28.03.2024 03:45";154
"28.03.2024 04:00";154
"28.03.2024 04:15";154
"28.03.2024 04:30";154
"28.03.2024 04:45";153
"28.03.2024 05:00";153
"28.03.2024 05:15";153
"28.03.2024 05:30";153
"28.03.2024 05:45";153
"28.03.2024 06:00";153
"28.03.2024 06:15";153
"28.03.2024 06:30";153
"28.03.2024 06:45";153
"28.03.2024 07:00";153
"28.03.2024 07:15";153
"28.03.2024 07:30";153
"28.03.2024 07:45";153
"28.03.2024 08:00";153
"28.03.2024 08:15";153
"28.03.2024 08:30";153
"28.03.2024 08:45";153
"28.03.2024 09:00";153
"28.03.2024 09:15";153
"28.03.2024 09:30";153
"28.03.2024 09:45";153
"28.03.2024 10:00";153
"28.03.2024 10:15";153
"28.03.2024 10:30";153
"28.03.2024 10:45";153
"28.03.2024 11:00";153
"28.03.2024 11:15";153
"28.03.2024 11:30";153
"28.03.2024 11:45";153
"28.03.2024 12:00";153
"28.03.2024 12:15";153
"28.03.2024 12:30";153
"28.03.2024 12:45";153
"28.03.2024 13:00";153
"28.03.2024 13:15";153
"28.03.2024 13:30";153
"28.03.2024 13:45";153
"28.03.2024 14:00";153
"28.03.2024 14:15";153
"28.03.2024 14:30";153
"28.03.2024 14:45";153
"28.03.2024 15:00";154
"28.03.2024 15:15";154
"28.03.2024 15:30";154
"28.03.2024 15:45";154
"28.03.2024 16:00";154
"28.03.2024 16:15";154
"28.03.2024 16:30";154
"28.03.2024 16:45";154
"28.03.2024 17:00";154
"28.03.2024 17:15";154
"28.03.2024 17:30";154
"28.03.2024 17:45";154
"28.03.2024 18:00";154
"28.03.2024 18:15";154
"28.03.2024 18:30";154
"28.03.2024 18:45";154
"28.03.2024 19:00";154
"28.03.2024 19:15";153
"28.03.2024 19:30";153
"28.03.2024 19:45";153
"28.03.2024 20:00";153
"28.03.2024 20:15";153
"28.03.2024 20:30";153
"28.03.2024 20:45";153
"28.03.2024 21:00";153
"28.03.2024 21:15";153
"28.03.2024 21:30";153
"28.03.2024 21:45";153
"28.03.2024 22:00";153
"28.03.2024 22:15";153
"28.03.2024 22:30";153
"28.03.2024 22:45";153
"28.03.2024 23:00";153
"28.03.2024 23:15";153
"28.03.2024 23:30";153
"28.03.2024 23:45";153
"29.03.2024 00:00";153
"29.03.2024 00:15";153
"29.03.2024 00:30";153
"29.03.2024 00:45";152
"29.03.2024 01:00";152
"29.03.2024 01:15";152
"29.03.2024 01:30";152
"29.03.2024 01:45";152
"29.03.2024 02:00";152
"29.03.2024 02:15";152
"29.03.2024 02:30";152
"29.03.2024 02:45";152
"29.03.2024 03:00";152
"29.03.2024 03:15";152
"29.03.2024 03:30";152
"29.03.2024 03:45";152
"29.03.2024 04:00";152
"29.03.2024 04:15";152
"29.03.2024 04:30";152
"29.03.2024 04:45";152
"29.03.2024 05:00";152
"29.03.2024 05:15";152
"29.03.2024 05:30";152
"29.03.2024 05:45";152
"29.03.2024 06:00";152
"29.03.2024 06:15";152
"29.03.2024 06:30";152
"29.03.2024 06:45";152
"29.03.2024 07:00";152
"29.03.2024 07:15";152
"29.03.2024 07:30";152
"29.03.2024 07:45";152
"29.03.2024 08:00";152
"29.03.2024 08:15";152
"29.03.2024 08:30";152
"29.03.2024 08:45";152
"29.03.2024 09:00";152
"29.03.2024 09:15";152
"29.03.2024 09:30";152
"29.03.2024 09:45";152
"29.03.2024 10:00";152
"29.03.2024 10:15";152
"29.03.2024 10:30";152
"29.03.2024 10:45";152
"29.03.2024 11:00";152
"29.03.2024 11:15";152
"29.03.2024 11:30";152
"29.03.2024 11:45";152
"29.03.2024 12:00";152
"29.03.2024 12:15";152
"29.03.2024 12:30";152
"29.03.2024 12:45";152
"29.03.2024 13:00";152
"29.03.2024 13:15";152
"29.03.2024 13:30";152
"29.03.2024 13:45";152
"29.03.2024 14:00";152
"29.03.2024 14:15";152
"29.03.2024 14:30";152
"29.03.2024 14:45";152
"29.03.2024 15:00";152
"29.03.2024 15:15";152
"29.03.2024 15:30";152
"29.03.2024 15:45";152
"29.03.2024 16:00";152
"29.03.2024 16:15";152
"29.03.2024 16:30";152
"29.03.2024 16:45";152
"29.03.2024 17:00";152
"29.03.2024 17:15";152
"29.03.2024 17:30";152
"29.03.2024 17:45";152
"29.03.2024 18:00";152
"29.03.2024 18:15";152
"29.03.2024 18:30";152
"29.03.2024 18:45";152
"29.03.2024 19:00";152
"29.03.2024 19:15";152